Toledo, OH

8:02 AM EDT on April 30, 2017 (GMT -0400)
Toledo Express

Weather History for KTOL - January, 2014

Change the Weather History Date:

Saturday, January 11, 2014

  Actual Average Record
Temperature  
Mean Temperature 39 °F 25 °F  
Max Temperature 44 °F 33 °F 68 °F (1890)
Min Temperature 33 °F 18 °F -14 °F (1979)
Degree Days  
Heating Degree Days 26 40  
Month to date heating degree days 561 431  
Since 1 July heating degree days 3060 2756  
Cooling Degree Days 0 0  
Month to date cooling degree days 0 0  
Year to date cooling degree days 0 0  
Moisture  
Dew Point 37 °F    
Average Humidity 91    
Maximum Humidity 100    
Minimum Humidity 82    
Precipitation  
Precipitation 0.22 in 0.07 in 0.76 in (2013)
Month to date precipitation 2.39 0.81  
Year to date precipitation 2.39 0.81  
Snow  
Snow 0.00 in 0.30 in - ()
Month to date snowfall 24.4 3.8  
Since 1 July snowfall 36.1 13.3  
Snow Depth 8.00 in    
Sea Level Pressure  
Sea Level Pressure 29.51 in    
Wind  
Wind Speed 14 mph (SW)    
Max Wind Speed 28 mph    
Max Gust Speed 35 mph    
Visibility 6 miles    
Events Fog , Rain    
T = Trace of Precipitation, MM = Missing Value Source: NWS Daily Summary

Daily Weather History Graph

Daily Weather History Graph

Search for Another Location

Airport or City:

Trip Planner

Search our weather history database for the weather conditions in past years. The results will help you decide how hot, cold, wet, or windy it might be!

Date:

Astronomy

Jan. 11, 2014 Rise Set
Actual Time 8:01 AM EST 5:25 PM EST
Civil Twilight 7:30 AM EST 5:56 PM EST
Nautical Twilight 6:55 AM EST 6:30 PM EST
Astronomical Twilight 6:22 AM EST 7:04 PM EST
Moon 2:09 PM EST (1/11) 4:04 AM EST (1/11)
Length of Visible Light 10h 26m
Length of Day
9h 24m
Waxing Gibbous, 83% of the Moon is Illuminated
Jan 11
Waxing Gibbous
Jan 15
Full
Jan 24
Last Quarter
Jan 30
New
Feb 6
First Quarter

Hourly Weather History & Observations

Time (EST) Temp. Windchill Dew Point Humidity Pressure Visibility Wind Dir Wind Speed Gust Speed Precip Events Conditions
12:52 AM 41.0 °F 35.2 °F 41.0 °F 100% 29.65 in 2.5 mi South 9.2 mph - 0.05 in Rain Light Rain
1:52 AM 42.1 °F 36.1 °F 41.0 °F 96% 29.61 in 8.0 mi South 10.4 mph 17.3 mph 0.03 in Rain Light Rain
2:52 AM 41.0 °F 35.2 °F 41.0 °F 100% 29.59 in 8.0 mi South 9.2 mph - 0.02 in Rain Light Rain
3:52 AM 42.1 °F 37.7 °F 41.0 °F 96% 29.56 in 8.0 mi South 6.9 mph - 0.01 in   Overcast
4:13 AM 42.8 °F 38.6 °F 42.8 °F 100% 29.53 in 6.0 mi South 6.9 mph - N/A   Overcast
4:52 AM 43.0 °F 38.2 °F 43.0 °F 100% 29.53 in 10.0 mi SSW 8.1 mph - 0.01 in   Overcast
5:45 AM 42.8 °F 37.0 °F 42.8 °F 100% 29.51 in 2.0 mi SSW 10.4 mph - N/A   Overcast
5:52 AM 42.1 °F 36.6 °F 42.1 °F 100% 29.52 in 1.5 mi SSW 9.2 mph - N/A   Overcast
6:00 AM 42.8 °F 37.0 °F 42.8 °F 100% 29.50 in 1.2 mi SSW 10.4 mph - N/A   Overcast
6:52 AM 42.1 °F 36.6 °F 42.1 °F 100% 29.47 in 0.5 mi South 9.2 mph - N/A   Overcast
7:52 AM 42.1 °F 37.1 °F 42.1 °F 100% 29.45 in 0.5 mi South 8.1 mph - N/A Fog Fog
8:52 AM 42.1 °F 37.7 °F 42.1 °F 100% 29.41 in 0.5 mi South 6.9 mph - 0.01 in Rain Light Rain
9:38 AM 42.8 °F 37.5 °F 42.8 °F 100% 29.41 in 2.5 mi SSW 9.2 mph - 0.01 in Rain Light Rain
9:52 AM 43.0 °F 37.2 °F 43.0 °F 100% 29.42 in 3.0 mi SSW 10.4 mph - 0.01 in   Overcast
10:52 AM 42.1 °F 33.9 °F 41.0 °F 96% 29.41 in 10.0 mi SW 17.3 mph 25.3 mph 0.03 in   Overcast
11:34 AM 41.0 °F 33.5 °F 41.0 °F 100% 29.39 in 2.0 mi SW 13.8 mph 23.0 mph N/A   Overcast
11:52 AM 39.9 °F 31.8 °F 39.9 °F 100% 29.39 in 2.0 mi WSW 15.0 mph - N/A   Overcast
12:52 PM 39.0 °F 30.3 °F 39.0 °F 100% 29.39 in 1.0 mi SW 16.1 mph 24.2 mph N/A   Overcast
1:41 PM 37.4 °F 28.2 °F 35.6 °F 93% 29.38 in 2.0 mi WSW 16.1 mph 27.6 mph 0.03 in Rain Light Rain
1:52 PM 37.0 °F 27.4 °F 36.0 °F 96% 29.40 in 3.0 mi WSW 17.3 mph 27.6 mph 0.04 in Rain Light Rain
2:52 PM 36.0 °F 24.4 °F 35.1 °F 97% 29.42 in 3.0 mi West 23.0 mph 29.9 mph 0.01 in   Overcast
3:52 PM 35.1 °F 24.5 °F 33.1 °F 92% 29.47 in 10.0 mi WSW 18.4 mph - 0.00 in   Overcast
4:20 PM 35.6 °F 25.2 °F 33.8 °F 93% 29.47 in 10.0 mi WSW 18.4 mph - N/A   Overcast
4:30 PM 35.6 °F 25.2 °F 32.0 °F 87% 29.47 in 10.0 mi WSW 18.4 mph 26.5 mph N/A   Overcast
4:52 PM 35.1 °F 24.1 °F 32.0 °F 89% 29.51 in 10.0 mi WSW 19.6 mph - N/A   Overcast
5:52 PM 34.0 °F 22.4 °F 32.0 °F 92% 29.54 in 10.0 mi West 20.7 mph 25.3 mph N/A   Overcast
6:48 PM 33.8 °F 22.8 °F 32.0 °F 93% 29.55 in 7.0 mi West 18.4 mph - 0.01 in   Overcast
6:52 PM 33.1 °F 21.5 °F 32.0 °F 96% 29.57 in 7.0 mi West 19.6 mph - 0.01 in   Overcast
7:52 PM 33.1 °F 21.9 °F 30.9 °F 92% 29.60 in 8.0 mi WSW 18.4 mph - N/A   Overcast
8:11 PM 33.8 °F 21.9 °F 30.2 °F 87% 29.59 in 10.0 mi WSW 21.9 mph 26.5 mph N/A   Overcast
8:18 PM 33.8 °F 21.9 °F 30.2 °F 87% 29.60 in 10.0 mi WSW 21.9 mph - N/A   Overcast
8:52 PM 33.1 °F 23.4 °F 30.0 °F 89% 29.63 in 10.0 mi WSW 13.8 mph - N/A   Overcast
9:52 PM 34.0 °F 24.2 °F 28.0 °F 79% 29.66 in 10.0 mi West 15.0 mph 24.2 mph N/A   Overcast
10:52 PM 33.1 °F 23.9 °F 28.9 °F 85% 29.69 in 10.0 mi WSW 12.7 mph - N/A   Overcast
11:52 PM 33.1 °F 23.9 °F 28.9 °F 85% 29.70 in 10.0 mi WSW 12.7 mph - N/A   Overcast